Theta_e
317 313 312 318 322 323 326 324 339 346 346 338 338 341 344 344 347 351 342 342 343 342 340 336 332 332 332 332 333 333 331 329 324 319 315 311 311 312 316 318 319 322 322 321 314 310 311 312 313
311 311 316 320 321 324 326 326 332 343 339 334 333 334 336 338 341 342 341 342 343 342 340 338 332 332 332 333 334 332 330 325 319 315 311 310 311 312 314 315 317 318 319 317 313 314 314 314 314
312 315 319 319 320 323 325 337 340 337 334 333 334 334 333 334 338 337 341 342 342 342 341 339 333 333 333 334 334 332 326 321 317 314 311 310 311 311 312 316 318 318 317 315 313 311 310 311 313
313 317 318 319 321 320 325 337 337 336 334 331 332 338 336 332 332 330 338 341 341 342 341 338 334 334 334 335 334 330 324 320 317 315 311 310 310 311 318 318 318 316 316 315 315 315 313 311 311
315 318 319 320 320 319 322 336 337 335 334 331 330 334 339 339 335 336 341 338 338 339 340 338 335 334 334 335 333 328 322 319 318 316 312 309 310 318 318 317 317 316 316 316 316 316 316 315 315
317 318 318 320 324 326 323 334 335 333 331 331 333 334 344 341 340 342 342 339 337 341 340 339 335 335 334 336 331 326 321 319 317 315 311 314 316 319 318 317 318 317 317 316 316 316 316 316 316
318 317 319 322 329 331 330 334 334 330 332 333 334 336 343 341 342 341 342 340 340 341 340 338 337 334 334 333 330 324 319 318 317 314 318 319 319 320 320 319 319 319 318 317 316 316 315 315 316
319 318 319 325 330 333 334 332 330 329 333 333 335 337 345 341 341 340 339 340 340 340 340 339 338 337 336 335 329 322 320 319 319 317 320 322 322 321 321 321 321 320 319 318 317 316 316 315 314
317 318 320 328 330 330 329 330 328 330 333 332 330 338 340 340 341 340 339 339 340 339 338 338 336 336 335 333 331 323 319 320 322 321 321 324 327 327 326 321 320 318 318 317 317 316 316 316 316
319 319 320 325 329 331 329 326 326 332 334 332 339 340 341 341 340 340 340 339 339 338 337 335 337 335 334 330 329 326 324 326 329 329 328 329 329 328 326 323 318 317 317 317 317 317 316 317 317
319 320 318 320 329 327 324 325 324 328 334 333 337 342 339 339 338 339 339 338 337 337 335 334 336 333 329 327 325 324 325 329 330 330 330 331 330 330 328 324 321 321 319 320 320 319 317 317 316
320 319 318 322 328 326 325 326 327 328 329 330 335 340 340 339 340 340 338 338 338 336 333 332 330 329 327 324 323 325 328 330 330 331 332 330 329 329 328 321 321 321 320 320 318 317 316 315 314
318 319 317 316 323 328 326 326 329 330 329 332 338 340 340 339 335 333 332 331 331 330 329 328 327 325 325 325 327 329 329 329 330 330 329 328 327 326 323 322 320 319 318 317 316 316 315 313 312
319 318 316 314 319 325 325 324 327 325 331 337 339 339 338 336 332 330 329 328 327 326 328 327 326 325 326 327 328 328 325 320 321 321 322 325 323 324 322 320 318 317 316 316 315 314 312 311 311
316 316 315 314 317 320 323 321 319 324 330 336 337 337 336 333 331 328 325 325 325 325 328 329 327 326 327 328 326 321 320 319 320 320 320 322 322 320 319 317 317 316 314 313 312 311 310 309 309
315 316 316 316 316 314 319 319 320 324 329 334 335 335 334 331 329 327 325 324 324 327 330 329 327 326 328 327 322 319 319 321 321 321 321 320 316 314 316 315 314 312 310 310 309 309 308 308 308
315 315 316 317 318 316 317 317 321 325 328 331 333 332 331 329 328 328 325 326 328 330 330 329 328 327 322 321 322 321 321 322 318 319 316 312 312 311 310 311 310 309 308 308 307 308 308 308 307
316 317 315 316 320 317 319 323 321 327 329 329 330 330 330 331 330 327 328 329 330 331 330 329 328 324 324 321 318 321 318 315 314 313 312 311 311 311 310 309 308 307 308 308 308 307 307 305 305
317 318 316 318 321 324 324 324 323 327 329 330 329 330 331 330 328 328 328 329 330 330 329 329 326 327 325 324 322 318 317 315 312 312 310 310 309 308 308 307 308 308 307 306 305 304 303 302 302
318 318 320 319 320 324 325 326 325 324 328 330 330 330 331 330 329 328 329 329 328 328 328 328 328 328 326 322 319 318 318 316 312 310 309 308 308 307 307 306 306 305 303 304 304 303 302 301 300
321 321 321 321 322 323 325 327 327 325 325 326 328 329 330 330 330 330 330 330 329 329 329 329 328 326 319 319 319 318 316 313 312 311 310 308 307 306 305 304 303 302 301 301 302 301 300 299 298
322 320 321 322 323 322 322 323 328 328 328 328 329 330 330 330 331 330 330 329 330 329 328 323 320 318 318 316 315 316 316 316 312 310 308 307 305 304 303 303 303 302 301 301 300 298 298 297 297
322 320 322 321 323 323 323 323 328 329 331 331 332 332 332 329 327 325 324 324 324 324 321 318 316 315 315 315 314 313 312 310 308 307 306 305 304 304 304 303 303 303 302 300 298 297 297 296 296
320 322 322 322 323 324 322 323 321 329 329 331 331 329 329 326 322 319 317 317 317 317 316 315 314 313 312 311 310 309 307 305 304 304 304 303 302 303 303 303 302 302 301 299 298 298 297 296 294
323 324 323 327 326 324 323 323 320 322 326 330 329 327 326 323 320 318 316 315 315 315 315 313 313 312 310 308 305 304 304 304 303 303 302 302 300 299 299 299 298 299 300 298 298 297 297 296 294
323 323 322 319 321 321 322 323 323 321 322 327 327 325 323 321 319 318 316 316 315 314 314 313 312 309 307 305 305 305 303 303 302 301 299 298 298 296 296 296 297 299 299 298 297 297 296 295 294
321 322 322 325 321 326 322 323 322 321 321 326 326 324 322 321 320 318 317 316 315 314 313 312 309 306 305 303 302 304 303 300 298 298 298 296 296 295 295 295 296 297 298 298 297 296 296 295 294
322 320 323 323 325 321 320 321 320 324 322 324 326 324 322 321 320 319 317 316 314 313 311 309 308 305 303 304 302 300 299 298 298 297 296 296 295 295 294 294 295 296 296 296 296 295 295 294 293
321 321 319 320 321 318 316 315 321 321 323 324 325 323 322 321 320 319 316 315 313 311 309 309 306 304 303 300 299 299 298 297 297 296 296 296 295 295 294 294 295 295 295 295 295 295 295 293 292
320 321 319 319 319 320 321 317 316 320 322 322 324 323 322 321 320 318 316 313 311 309 309 305 304 302 299 300 299 298 297 297 297 296 296 296 295 295 294 295 294 294 294 295 295 294 292 292 291
Wind_Speed
4 3 3 5 6 6 9 5 7 10 11 15 11 12 12 11 7 2 13 15 23 24 24 23 23 24 23 22 20 18 17 15 15 15 14 14 15 16 15 16 15 14 13 13 14 15 15 16 17
3 3 5 3 7 9 6 3 8 12 14 9 10 7 10 9 8 10 10 17 24 24 24 22 23 23 22 20 18 17 16 15 15 14 14 15 16 17 16 15 14 13 12 13 15 15 15 15 16
4 4 4 4 8 10 1 10 16 17 14 10 5 7 3 3 7 3 5 16 20 23 23 23 24 23 21 19 17 16 15 15 15 15 15 15 16 16 15 14 13 13 14 16 17 18 18 16 17
7 7 4 8 9 3 0 14 15 15 7 4 12 8 3 7 4 13 15 16 21 21 21 22 24 21 19 18 17 15 15 15 14 14 15 15 15 15 14 15 15 16 17 17 17 18 20 20 19
6 3 7 8 4 2 5 16 15 7 7 11 7 10 10 12 16 14 18 24 19 22 18 21 20 18 17 16 15 15 14 14 14 14 14 15 15 15 15 17 16 16 17 16 16 16 16 17 18
6 4 6 10 4 5 6 15 7 6 4 9 5 12 4 11 18 16 21 24 24 24 18 16 17 16 15 14 13 13 13 13 13 13 14 14 15 15 15 15 15 14 14 15 14 14 14 14 15
7 7 6 2 6 6 5 8 9 2 6 3 7 5 3 10 12 15 19 17 16 18 17 15 14 13 14 13 12 12 11 11 11 12 12 13 14 12 12 10 10 10 10 11 11 11 11 12 13
3 5 7 5 9 9 10 6 13 9 4 4 3 6 5 13 20 17 18 17 17 16 14 14 14 13 11 10 10 10 10 10 10 11 11 11 10 9 9 8 5 5 5 5 6 8 9 9 10
2 6 8 8 10 11 15 11 3 6 8 3 2 1 12 21 20 19 16 15 15 13 13 13 14 13 11 10 8 8 9 10 11 10 9 7 5 5 4 3 3 2 2 2 3 4 5 9 11
7 7 5 7 10 12 10 7 9 6 8 7 7 9 22 22 20 18 16 13 14 13 11 10 12 10 10 9 10 8 8 7 5 5 4 3 2 2 2 1 1 1 2 2 2 3 7 9 10
6 4 2 8 12 7 12 18 17 7 7 8 8 17 18 19 17 15 15 13 13 13 11 10 10 10 10 8 9 7 7 5 4 2 1 2 2 2 2 2 1 0 1 1 3 5 5 7 10
9 8 1 8 13 12 10 14 11 11 8 1 10 19 21 17 15 18 16 15 14 12 13 12 11 11 10 10 9 8 6 3 2 1 2 3 3 2 3 2 1 0 1 2 3 3 4 6 8
11 4 3 5 9 11 7 12 5 6 4 11 18 19 16 16 15 14 15 14 14 14 13 12 11 11 11 12 10 9 6 3 3 4 5 4 2 2 3 2 1 1 3 4 5 6 8 9 10
2 8 3 6 10 12 13 5 5 7 5 13 16 16 14 15 14 13 11 12 12 13 12 12 11 12 11 13 12 9 7 4 2 8 13 4 3 3 3 2 1 2 4 5 6 7 9 11 12
4 7 8 8 10 7 9 8 7 5 5 11 13 11 10 11 11 11 10 11 13 13 13 13 13 13 13 13 13 11 9 10 15 16 10 7 5 7 3 2 2 2 2 4 6 7 10 12 13
7 6 6 6 7 4 9 12 7 3 8 11 13 10 10 8 9 7 9 10 12 14 16 16 15 14 14 15 13 6 9 16 14 5 2 3 4 4 3 0 2 3 5 5 7 9 11 13 15
6 8 7 8 5 7 6 8 6 2 9 10 10 11 12 10 9 6 8 11 13 16 19 19 19 20 17 11 4 8 11 10 6 7 8 8 6 3 0 3 4 5 5 7 8 11 13 16 18
8 6 10 10 4 6 7 7 5 4 10 11 12 11 11 10 7 6 7 10 13 16 18 20 21 20 17 13 15 9 7 9 8 7 5 4 3 3 4 4 5 6 8 10 12 13 14 16 17
3 6 11 8 5 4 6 7 4 5 8 9 10 11 10 9 7 7 9 11 14 15 19 20 20 15 12 12 12 11 11 8 6 5 5 4 3 4 5 4 6 9 11 11 10 11 14 16 16
6 9 8 5 4 4 7 5 4 4 5 6 9 10 10 8 8 9 11 12 15 18 19 18 16 12 12 11 12 11 10 7 7 6 4 4 4 4 4 5 8 10 10 10 10 11 14 17 14
5 5 10 7 7 2 9 7 7 4 5 5 5 5 6 8 9 10 13 15 16 18 18 16 14 14 14 14 10 8 8 7 5 2 2 3 2 2 4 7 9 10 12 13 11 11 10 13 14
6 1 9 13 12 7 8 6 8 6 6 6 8 9 9 11 11 12 15 15 15 13 14 15 16 15 11 8 7 5 3 4 3 3 2 0 2 5 8 10 12 13 13 12 11 9 9 10 14
4 6 8 5 4 5 10 8 9 8 9 11 12 13 13 13 13 13 14 14 14 14 16 15 14 12 11 10 10 9 9 7 4 2 3 5 7 10 12 13 14 14 12 10 7 7 11 12 12
11 8 5 2 2 6 3 6 6 8 13 15 15 14 14 14 14 14 14 15 15 14 14 14 14 14 13 12 11 10 9 6 3 3 6 8 11 13 15 15 17 16 13 10 8 12 11 13 12
5 9 3 4 5 7 2 6 12 1 5 17 19 17 16 15 14 13 16 16 16 15 14 15 15 15 12 10 9 8 7 6 4 6 8 11 14 16 18 18 19 18 15 11 13 12 14 14 12
7 6 4 5 4 3 3 6 0 2 5 13 17 17 17 17 14 15 17 17 16 16 15 15 14 13 11 9 7 6 4 3 4 6 9 11 12 13 16 18 18 16 14 13 15 15 13 13 13
6 6 2 2 1 3 5 4 8 4 9 14 18 18 19 18 16 15 16 16 16 17 16 14 12 12 10 8 7 6 4 2 4 6 8 8 10 13 16 18 17 16 15 17 17 18 17 17 14
3 8 3 3 3 4 3 6 3 8 13 15 19 20 19 18 17 14 16 16 17 16 15 13 10 11 6 8 6 6 2 1 4 6 8 8 11 15 18 19 18 17 17 20 19 20 19 16 15
4 4 1 0 2 2 3 0 3 0 10 16 19 20 19 18 16 14 16 17 17 16 15 11 10 7 8 7 5 5 2 3 5 7 8 9 12 16 18 18 18 17 17 17 18 20 19 14 14
2 5 7 4 4 1 2 3 3 1 4 11 16 17 18 15 16 15 18 19 19 17 15 11 10 10 7 9 7 4 3 6 8 10 10 10 13 17 18 17 16 15 15 16 21 15 10 10 14
Wind_Direction
207 248 248 243 242 242 247 174 97 140 88 67 56 71 74 28 3 35 146 146 143 145 151 157 163 156 151 148 141 140 138 134 127 124 120 118 115 110 104 97 92 84 77 70 65 61 58 53 48
200 190 211 275 255 239 203 222 178 104 117 115 65 40 48 59 26 109 132 150 146 145 151 159 167 160 156 148 145 146 142 136 130 126 122 119 113 109 104 98 90 85 83 77 70 63 58 52 48
189 199 245 237 247 260 139 112 123 125 123 91 100 64 82 78 92 105 90 155 151 152 156 164 166 165 158 149 154 150 144 137 134 129 125 120 115 110 104 101 97 93 90 86 78 70 64 59 55
188 191 215 247 258 88 54 138 141 131 127 128 119 121 87 101 128 159 168 162 167 150 156 165 166 165 156 157 155 150 143 138 135 129 126 120 116 110 109 101 97 97 93 87 77 70 66 61 60
208 239 236 240 232 134 205 156 172 157 109 139 144 147 128 168 191 183 168 174 184 153 153 158 165 161 158 156 155 148 145 141 136 132 127 123 118 113 109 107 104 100 95 88 79 71 66 64 59
199 270 228 232 174 175 199 157 185 183 117 130 159 133 106 146 172 178 158 166 176 142 143 153 160 163 157 156 154 148 145 139 134 132 131 125 121 117 114 111 106 100 95 87 80 73 64 57 52
258 221 246 205 135 110 141 145 206 81 105 138 98 160 111 156 169 165 162 156 142 131 137 145 150 153 156 155 152 146 141 135 133 132 129 125 119 119 114 112 104 98 91 84 78 67 57 48 42
251 259 184 191 128 92 105 93 99 50 307 110 163 168 182 160 154 155 152 150 139 133 138 142 142 147 147 146 152 144 138 134 132 137 137 130 125 120 113 92 110 100 94 85 74 65 55 50 40
241 229 202 159 166 120 136 122 213 167 167 177 73 103 142 152 150 146 146 144 129 132 136 136 145 151 151 147 146 139 139 143 144 143 150 128 134 122 100 146 110 87 53 35 64 60 37 41 19
232 243 209 160 135 145 152 120 147 200 172 158 106 107 134 149 157 153 151 145 143 141 144 144 146 142 141 141 140 136 142 149 148 148 163 143 152 153 140 98 102 38 10 7 59 47 27 18 3
191 247 126 181 181 132 154 156 156 204 210 162 165 150 148 155 159 156 157 159 162 160 148 147 137 142 138 142 133 129 134 147 164 167 188 230 229 225 230 217 157 163 44 355 1 360 3 8 3
232 241 245 149 184 190 183 183 203 219 44 84 149 157 152 159 163 161 163 168 157 153 152 153 148 133 130 131 124 128 123 119 90 349 313 279 271 245 217 213 203 250 303 303 331 335 354 354 354
234 235 236 205 190 196 200 191 194 143 38 121 140 152 161 158 162 154 160 157 153 154 147 146 137 137 136 127 120 119 112 76 12 352 338 341 299 243 214 201 251 317 319 323 327 330 330 337 335
198 234 200 173 179 178 200 125 186 65 114 128 146 158 162 159 157 147 156 153 154 150 149 140 139 136 132 130 125 109 94 62 35 356 337 280 250 272 227 189 268 304 328 321 326 327 331 331 327
181 149 145 121 169 155 192 146 52 7 160 143 145 150 153 149 161 160 155 157 159 155 148 145 139 136 130 124 114 92 16 339 325 311 306 262 243 230 201 202 250 294 325 350 338 335 328 323 320
191 205 153 93 162 152 224 135 45 39 173 160 151 150 153 159 171 159 172 166 165 156 155 151 139 128 122 115 107 7 314 249 292 312 306 162 179 189 226 279 18 355 4 3 345 337 323 319 318
188 174 164 143 44 146 234 129 49 139 171 164 161 161 165 155 153 157 172 172 169 165 162 156 146 140 123 107 263 256 272 243 193 141 154 172 187 194 285 19 20 19 3 3 343 325 322 320 313
177 139 172 150 67 178 154 110 87 144 173 172 169 171 173 170 150 152 163 168 165 161 161 156 152 152 160 190 235 241 178 159 140 145 141 111 92 72 66 47 38 13 346 330 324 321 318 314 308
167 161 151 118 113 131 127 127 106 151 171 177 181 179 177 179 148 153 160 157 154 157 158 158 160 173 192 175 159 173 161 150 132 127 102 95 93 68 62 24 355 343 328 321 323 322 318 317 317
163 159 142 117 129 233 167 124 91 125 157 196 189 191 182 162 162 164 156 153 154 156 158 165 173 187 180 155 146 158 161 155 146 124 116 99 80 68 36 357 339 336 332 322 315 314 312 309 318
104 189 167 172 156 152 179 176 174 134 151 164 190 183 169 176 164 164 162 164 164 168 169 170 165 163 150 145 145 140 137 131 137 130 53 65 78 21 348 341 336 331 321 310 300 303 308 316 317
152 105 160 149 182 200 207 228 173 168 161 171 161 165 159 168 161 151 152 150 157 160 158 148 144 143 144 144 137 148 130 140 118 115 118 349 342 330 324 320 316 311 308 298 295 296 307 313 313
95 167 144 151 200 221 191 252 117 170 189 173 161 152 155 155 151 145 140 136 139 143 146 141 139 133 128 126 131 127 121 118 110 65 351 322 315 314 313 310 305 298 291 283 283 296 305 305 303
137 143 127 158 237 246 235 266 213 188 209 173 167 166 162 158 151 142 138 142 139 144 145 141 136 127 124 121 115 108 104 95 61 12 330 323 316 311 310 309 305 296 281 265 274 294 288 293 292
227 190 204 223 220 253 100 248 265 251 202 183 175 172 171 166 162 159 160 159 154 154 152 144 138 130 126 117 105 95 84 63 23 353 335 322 318 315 314 312 306 292 274 258 287 284 288 281 275
198 246 237 251 231 259 186 239 131 159 198 186 179 174 172 175 172 172 170 166 163 155 154 150 146 134 124 113 105 104 72 20 1 348 327 318 319 322 321 315 307 294 269 270 289 283 285 273 269
149 216 38 135 69 260 248 217 217 196 188 190 183 179 181 183 179 178 174 173 167 162 158 155 148 139 133 135 141 127 115 52 353 331 316 323 324 323 323 319 309 295 273 280 283 287 292 285 272
289 132 180 214 231 244 198 263 267 182 188 192 190 192 191 189 184 181 181 174 169 163 157 152 145 144 158 155 150 131 137 349 327 311 310 317 322 326 324 318 310 298 286 285 280 290 289 285 272
153 187 74 282 289 278 300 143 71 58 196 198 201 198 197 194 190 186 181 174 169 167 161 155 154 154 159 161 167 171 188 303 309 302 305 312 320 323 321 317 312 302 292 289 283 282 290 280 273
274 218 205 237 184 219 321 285 142 158 213 208 207 205 204 201 193 188 182 176 173 173 168 161 161 166 188 208 204 210 264 297 294 299 299 303 313 319 319 315 311 307 301 297 294 288 282 273 289